[[{"header":{"parameterUnit":"m.s-1","parameterCategory":1,"la1":30.2991,"la2":30.254,"lo1":-89.0895,"lo2":-89.0444,"dy":0.0017,"dx":0.0017,"nx":28,"ny":28,"refTime":"2025-09-12T21:00:00:Z","depth":0,"parameterNumber":2,"parameterNumberName":"U-component_of_WINDS"},"data":[0,0,0,0,0,0,0,0,0,0,0,0,0,0,0,0,0,0,0,0,0,0,0,0,0,0,0,0,0,0,0,0,0,0,0,0,0,0,0,0,0,0,0,0,0,0,0,0,0,0,0,0,0,0,0,0,0,0,-0.8836,-0.8838,0,-0.8953,-0.8955,-0.8956,-0.8989,-0.8988,-0.8988,-0.8987,-0.9109,-0.9113,-0.9116,0,0,0,0,0,0,0,0,0,0,0,0,0,-0.8645,-0.8648,-0.8836,-0.8838,-0.8839,-0.8953,-0.8955,-0.8956,-0.8989,-0.8988,-0.8987,-0.8987,-0.9108,-0.9112,-0.9117,0,0,0,0,0,0,0,0,0,0,0,0,0,-0.8741,-0.8649,-0.8836,-0.8869,-0.8873,-0.8953,-0.8955,-0.8957,-0.8989,-0.8988,-0.8987,-0.8986,-0.9106,-0.9112,-0.9117,-0.9173,0,0,-0.9135,-0.9138,0,0,0,0,0,0,0,0,-0.8736,-0.8748,-0.8863,-0.8867,-0.8872,-0.8956,-0.8932,-0.9029,-0.899,-0.8945,-0.8987,-0.8986,-0.9059,-0.9068,-0.9093,-0.9179,-0.9184,-0.9136,-0.9139,-0.9142,-0.9143,0,0,0,0,0,0,0,-0.8729,-0.8744,-0.8883,-0.8865,-0.887,-0.8879,-0.8892,-0.895,-0.9006,-0.8949,-0.8952,-0.8965,-0.9061,-0.9087,-0.9096,-0.9186,-0.9135,-0.9141,-0.9144,-0.9146,-0.9325,-0.9326,0,0,0,0,0,0,-0.8716,-0.8738,-0.8879,-0.8886,-0.88,-0.8884,-0.8898,-0.893,-0.9006,-0.9016,-0.8966,-0.8966,-0.9078,-0.9089,-0.91,-0.9171,-0.9142,-0.9147,-0.915,-0.9324,-0.9325,-0.9327,0,0,0,0,0,0,-0.8712,-0.8729,-0.8874,-0.8813,-0.8832,-0.8888,-0.8924,-0.8933,-0.8958,-0.9018,-0.9029,-0.8982,-0.9077,-0.9092,-0.9155,-0.9176,-0.915,-0.9155,-0.9322,-0.9324,-0.9326,-0.9313,0,0,0,0,0,0,-0.8706,-0.8727,-0.8748,-0.8813,-0.8835,-0.8926,-0.8925,-0.8936,-0.8968,-0.897,-0.9036,-0.9046,-0.9078,-0.9146,-0.9161,-0.9183,-0.9159,-0.9321,-0.9323,-0.9325,-0.9312,-0.9314,-0.9316,0,0,0,0,0,-0.8699,-0.8739,-0.8748,-0.8765,-0.8862,-0.8927,-0.894,-0.8975,-0.8969,-0.8992,-0.903,-0.9044,-0.9171,-0.9152,-0.9169,-0.9194,-0.9319,-0.9322,-0.9325,-0.9311,-0.9314,-0.9316,0,0,0,0,0,0,-0.8675,-0.8748,-0.8759,-0.8821,-0.8868,-0.8932,-0.8961,-0.8976,-0.9026,-0.9025,-0.9067,-0.9082,-0.9142,-0.9174,-0.9152,-0.9252,-0.9246,-0.9252,-0.9229,-0.9232,-0.9234,-0.9226,-0.9164,0,0,0,0,0,-0.8677,-0.8723,-0.8785,-0.8833,-0.8856,-0.8904,-0.8934,-0.8957,-0.9007,-0.9027,-0.907,-0.9119,-0.917,-0.9203,-0.9253,-0.9316,-0.9332,-0.9342,-0.9344,-0.9346,-0.9351,-0.9388,-0.9394,-0.9336,-0.9336,-0.9336,0,0,-0.8681,-0.8727,-0.8753,-0.883,-0.8868,-0.8916,-0.8921,-0.8971,-0.9007,-0.9035,-0.9097,-0.913,-0.9188,-0.9251,-0.9282,-0.928,-0.937,-0.9349,-0.935,-0.9355,-0.9392,-0.9397,-0.9402,-0.9338,-0.9338,-0.9337,0,0,-0.8714,-0.8752,-0.8798,-0.8836,-0.8895,-0.8927,-0.8938,-0.9001,-0.9024,-0.9087,-0.911,-0.9154,-0.9241,-0.9281,-0.9313,-0.9362,-0.9377,-0.9377,-0.9389,-0.9425,-0.943,-0.9434,-0.9453,-0.9459,-0.9382,-0.9382,-0.9382,0,-0.8712,-0.8783,-0.8819,-0.8868,-0.8902,-0.8929,-0.8977,-0.9013,-0.9085,-0.9108,-0.9105,-0.9216,-0.9256,-0.933,-0.9342,-0.9367,-0.9382,-0.937,-0.9426,-0.9431,-0.9435,-0.9454,-0.946,-0.9382,-0.9382,-0.9382,-0.9382,0,-0.8779,-0.8828,-0.8858,-0.8927,-0.8964,-0.9012,-0.9056,-0.909,-0.911,-0.9143,-0.9208,-0.9257,-0.9319,-0.9338,-0.9358,-0.9416,-0.9413,-0.9417,-0.9412,-0.944,-0.9458,-0.9465,-0.9382,-0.9382,-0.9382,-0.9382,0,0,-0.8798,-0.8887,-0.8897,-0.893,-0.8997,-0.9036,-0.9086,-0.9146,-0.9175,-0.9224,-0.9268,-0.9341,-0.9346,-0.9382,-0.9408,-0.9439,-0.9477,-0.944,-0.9442,-0.9446,-0.9545,-0.9541,-0.9549,-0.9487,-0.9488,-0.9489,-0.954,0,-0.884,-0.8929,-0.8963,-0.9037,-0.9084,-0.9111,-0.9155,-0.9202,-0.9234,-0.928,-0.9316,-0.9368,-0.937,-0.9393,-0.9425,-0.9465,-0.9497,-0.9462,-0.9529,-0.9531,-0.9514,-0.9558,-0.9554,-0.9599,-0.9547,-0.9549,-0.9549,0,-0.8899,-0.8949,-0.9027,-0.909,-0.9111,-0.9149,-0.9208,-0.9251,-0.9305,-0.9326,-0.9367,-0.9391,-0.9446,-0.9437,-0.9514,-0.9489,-0.9519,-0.9543,-0.9546,-0.9554,-0.9542,-0.9568,-0.9615,-0.9622,-0.9561,-0.956,-0.9559,0,-0.8907,-0.8993,-0.9052,-0.9078,-0.9152,-0.9179,-0.9212,-0.9265,-0.9299,-0.935,-0.9373,-0.9431,-0.9462,-0.9507,-0.9546,-0.9535,-0.962,-0.9613,-0.964,-0.9639,-0.9657,-0.9655,-0.971,-0.9675,-0.9675,-0.9675,-0.9675,0,-0.895,-0.8997,-0.9056,-0.9092,-0.9146,-0.9186,-0.9238,-0.9273,-0.932,-0.9364,-0.9392,-0.9433,-0.9481,-0.9529,-0.956,-0.962,-0.9634,-0.9654,-0.9662,-0.9652,-0.9649,-0.9672,-0.967,-0.9677,-0.9676,-0.9676,-0.9675,0,-0.8967,-0.9009,-0.9074,-0.9139,-0.9157,-0.9194,-0.9251,-0.9287,-0.9321,-0.9377,-0.9392,-0.9446,-0.9504,-0.9547,-0.9622,-0.9643,-0.9707,-0.9715,-0.9688,-0.9692,-0.9717,-0.9714,-0.9789,-0.9801,-0.9757,-0.9757,-0.9758,0,-0.8992,-0.9029,-0.9098,-0.9129,-0.9161,-0.9211,-0.9246,-0.9288,-0.9323,-0.9389,-0.9418,-0.9477,-0.9527,-0.9618,-0.9665,-0.9723,-0.9733,-0.9755,-0.9742,-0.9731,-0.9734,-0.9732,-0.9736,-0.9757,-0.9757,-0.9757,-0.9757,0,-0.9032,-0.9051,-0.91,-0.9157,-0.9198,-0.9245,-0.9293,-0.9317,-0.9367,-0.9406,-0.9465,-0.9504,-0.9581,-0.964,-0.9703,-0.9737,-0.9756,-0.9761,-0.9771,-0.9761,-0.9744,-0.9755,-0.9694,-0.9759,-0.9759,-0.9759,-0.9759,-0.9759,-0.9054,-0.9089,-0.9143,-0.9198,-0.9238,-0.9282,-0.932,-0.9359,-0.9409,-0.9474,-0.9496,-0.9557,-0.9612,-0.9698,-0.9734,-0.9784,-0.9784,-0.9797,-0.9801,-0.9803,-0.9803,-0.9736,-0.9795,-0.9795,-0.9795,-0.9795,-0.9795,0,-0.9096,-0.9133,-0.9183,-0.9248,-0.9292,-0.9305,-0.9359,-0.9394,-0.9448,-0.9497,-0.9546,-0.9615,-0.9673,-0.9724,-0.9785,-0.9815,-0.9825,-0.9829,-0.9828,-0.9836,-0.9799,-0.9785,-0.982,-0.982,-0.982,-0.982,-0.982,-0.982,-0.9123,-0.9183,-0.9208,-0.9289,-0.9325,-0.9385,-0.9415,-0.9457,-0.9496,-0.9572,-0.962,-0.9653,-0.9704,-0.9769,-0.9823,-0.9837,-0.9858,-0.9861,-0.9877,-0.9841,-0.9838,-0.9835,-0.9823,-0.9865,-0.9865,-0.991,-0.991,-0.991]},{"header":{"parameterUnit":"m.s-1","parameterCategory":1,"la1":30.2991,"la2":30.254,"lo1":-89.0895,"lo2":-89.0444,"dy":0.0017,"dx":0.0017,"nx":28,"ny":28,"refTime":"2025-09-12T21:00:00:Z","depth":0,"parameterNumber":3,"parameterNumberName":"V-component_of_WINDS"},"data":[0,0,0,0,0,0,0,0,0,0,0,0,0,0,0,0,0,0,0,0,0,0,0,0,0,0,0,0,0,0,0,0,0,0,0,0,0,0,0,0,0,0,0,0,0,0,0,0,0,0,0,0,0,0,0,0,0,0,-0.5316,-0.5317,0,-0.5398,-0.5399,-0.54,-0.5443,-0.5443,-0.5443,-0.5443,-0.553,-0.5532,-0.5534,0,0,0,0,0,0,0,0,0,0,0,0,0,-0.5201,-0.5202,-0.5316,-0.5317,-0.5318,-0.5398,-0.5399,-0.54,-0.5443,-0.5443,-0.5443,-0.5443,-0.5529,-0.5531,-0.5534,0,0,0,0,0,0,0,0,0,0,0,0,0,-0.5263,-0.5203,-0.5316,-0.5349,-0.5353,-0.5397,-0.5399,-0.54,-0.5443,-0.5443,-0.5443,-0.5443,-0.5528,-0.5531,-0.5535,-0.5553,0,0,-0.5545,-0.5546,0,0,0,0,0,0,0,0,-0.526,-0.5268,-0.5343,-0.5347,-0.5351,-0.541,-0.539,-0.5452,-0.5443,-0.5409,-0.5443,-0.5443,-0.549,-0.5496,-0.5512,-0.5557,-0.5561,-0.5545,-0.5547,-0.5549,-0.555,0,0,0,0,0,0,0,-0.5255,-0.5264,-0.5349,-0.5344,-0.5349,-0.5361,-0.537,-0.5402,-0.5448,-0.5412,-0.5415,-0.5424,-0.5492,-0.5508,-0.5514,-0.5562,-0.5545,-0.5548,-0.555,-0.5551,-0.5628,-0.5629,0,0,0,0,0,0,-0.5245,-0.526,-0.5346,-0.5351,-0.5305,-0.5363,-0.5373,-0.5391,-0.5448,-0.5456,-0.5424,-0.5426,-0.5503,-0.551,-0.5517,-0.5544,-0.5549,-0.5552,-0.5554,-0.5628,-0.5629,-0.5629,0,0,0,0,0,0,-0.5243,-0.5252,-0.5343,-0.5307,-0.5319,-0.5365,-0.5385,-0.5393,-0.5409,-0.5457,-0.5466,-0.5432,-0.5503,-0.5512,-0.5544,-0.5547,-0.5553,-0.5556,-0.5628,-0.5628,-0.5629,-0.5596,0,0,0,0,0,0,-0.5239,-0.5251,-0.5258,-0.5306,-0.5321,-0.5367,-0.5385,-0.5394,-0.5414,-0.5417,-0.5466,-0.5475,-0.5504,-0.5539,-0.5547,-0.5552,-0.5559,-0.5628,-0.5628,-0.5629,-0.5597,-0.5594,-0.5593,0,0,0,0,0,-0.5235,-0.5246,-0.5258,-0.5268,-0.533,-0.5367,-0.5375,-0.5408,-0.5414,-0.5422,-0.5453,-0.5473,-0.5545,-0.5542,-0.5552,-0.5557,-0.5628,-0.5628,-0.5628,-0.5597,-0.5595,-0.5593,0,0,0,0,0,0,-0.5198,-0.5253,-0.5267,-0.5294,-0.5325,-0.5374,-0.5385,-0.5404,-0.5435,-0.5437,-0.5477,-0.5487,-0.5515,-0.554,-0.5535,-0.5579,-0.5589,-0.5591,-0.5562,-0.556,-0.5558,-0.5552,-0.5562,0,0,0,0,0,-0.5192,-0.5217,-0.5264,-0.5283,-0.5298,-0.5339,-0.5356,-0.5378,-0.5413,-0.5427,-0.546,-0.5494,-0.5524,-0.5543,-0.5574,-0.56,-0.5612,-0.5609,-0.5607,-0.5605,-0.5607,-0.5623,-0.5623,-0.5629,-0.5629,-0.5629,0,0,-0.5182,-0.5215,-0.5228,-0.5277,-0.5304,-0.5329,-0.535,-0.5376,-0.5395,-0.5431,-0.5463,-0.5488,-0.5529,-0.5558,-0.5572,-0.5579,-0.5608,-0.5605,-0.5603,-0.5606,-0.5623,-0.5623,-0.5622,-0.5629,-0.5629,-0.5629,0,0,-0.5176,-0.5203,-0.5223,-0.5249,-0.529,-0.5317,-0.5321,-0.5367,-0.5385,-0.5418,-0.5445,-0.547,-0.5521,-0.5549,-0.5569,-0.5575,-0.5595,-0.5583,-0.5573,-0.5589,-0.5589,-0.5588,-0.5591,-0.5591,-0.5585,-0.5585,-0.5585,0,-0.5159,-0.5197,-0.5231,-0.5255,-0.5276,-0.5309,-0.5329,-0.5354,-0.5402,-0.5416,-0.5423,-0.5488,-0.5517,-0.5554,-0.5555,-0.557,-0.5578,-0.5578,-0.5586,-0.5586,-0.5586,-0.5589,-0.559,-0.5583,-0.5583,-0.5583,-0.5584,0,-0.5174,-0.52,-0.5211,-0.5257,-0.5279,-0.5301,-0.5339,-0.5357,-0.5378,-0.5404,-0.5437,-0.5474,-0.5512,-0.5523,-0.5543,-0.5562,-0.5565,-0.5578,-0.5589,-0.5584,-0.5587,-0.5588,-0.5581,-0.5581,-0.5582,-0.5582,0,0,-0.5147,-0.5211,-0.5214,-0.5235,-0.5282,-0.5304,-0.5328,-0.5365,-0.5381,-0.5413,-0.5435,-0.5478,-0.5491,-0.5514,-0.5538,-0.5552,-0.5554,-0.5563,-0.5565,-0.5561,-0.5579,-0.5569,-0.557,-0.5568,-0.5568,-0.5568,-0.5576,0,-0.5149,-0.5193,-0.5224,-0.5256,-0.5282,-0.5313,-0.5335,-0.5366,-0.5392,-0.5418,-0.5447,-0.5476,-0.549,-0.5505,-0.5519,-0.5551,-0.5559,-0.5551,-0.559,-0.5591,-0.5579,-0.5571,-0.5561,-0.5566,-0.5577,-0.5577,-0.5577,0,-0.5157,-0.5187,-0.5222,-0.5267,-0.5279,-0.5297,-0.5334,-0.5358,-0.5395,-0.5413,-0.5439,-0.5463,-0.5492,-0.55,-0.554,-0.5534,-0.5552,-0.5569,-0.557,-0.5576,-0.5584,-0.5577,-0.5569,-0.5569,-0.558,-0.558,-0.5579,0,-0.5134,-0.5184,-0.5212,-0.5229,-0.5282,-0.5294,-0.5317,-0.5354,-0.5374,-0.5407,-0.5421,-0.5456,-0.5476,-0.5503,-0.5537,-0.554,-0.5574,-0.5585,-0.559,-0.559,-0.5597,-0.5596,-0.5591,-0.5607,-0.5607,-0.5607,-0.5607,0,-0.5133,-0.5153,-0.5203,-0.5219,-0.5243,-0.5279,-0.5302,-0.5328,-0.5361,-0.5384,-0.5414,-0.5435,-0.5478,-0.5505,-0.5532,-0.5561,-0.557,-0.5586,-0.5593,-0.5583,-0.5581,-0.5596,-0.5597,-0.5607,-0.5607,-0.5607,-0.5607,0,-0.5112,-0.5146,-0.5178,-0.5225,-0.5238,-0.5253,-0.5294,-0.5313,-0.534,-0.5369,-0.5378,-0.5421,-0.5454,-0.549,-0.5536,-0.5554,-0.5582,-0.5592,-0.5569,-0.5573,-0.5577,-0.5576,-0.5582,-0.5585,-0.5598,-0.5598,-0.5598,0,-0.511,-0.5126,-0.5174,-0.5192,-0.5213,-0.5241,-0.5262,-0.5298,-0.5319,-0.5362,-0.5376,-0.5411,-0.5441,-0.5493,-0.5529,-0.5564,-0.5576,-0.5575,-0.5581,-0.5571,-0.5576,-0.5575,-0.5577,-0.5573,-0.5573,-0.5573,-0.5573,0,-0.5101,-0.5117,-0.5146,-0.518,-0.5204,-0.5233,-0.5263,-0.5276,-0.5319,-0.5341,-0.5375,-0.5398,-0.5444,-0.548,-0.5519,-0.5544,-0.5566,-0.557,-0.5574,-0.5565,-0.5551,-0.5559,-0.5565,-0.557,-0.557,-0.5571,-0.5571,-0.5571,-0.509,-0.5106,-0.5143,-0.5174,-0.52,-0.5228,-0.5248,-0.5277,-0.5306,-0.5346,-0.5366,-0.54,-0.5437,-0.5493,-0.5517,-0.5545,-0.5551,-0.5556,-0.5557,-0.5558,-0.5556,-0.5546,-0.5552,-0.5552,-0.5552,-0.5552,-0.5552,0,-0.5084,-0.5109,-0.5137,-0.5178,-0.5203,-0.522,-0.5255,-0.5275,-0.5304,-0.5337,-0.5365,-0.5405,-0.5439,-0.5478,-0.5515,-0.553,-0.5541,-0.5538,-0.5538,-0.5543,-0.5547,-0.5541,-0.5529,-0.5529,-0.5529,-0.5529,-0.5529,-0.5529,-0.5084,-0.5112,-0.5132,-0.5174,-0.52,-0.5233,-0.5251,-0.5277,-0.5304,-0.5346,-0.5374,-0.5399,-0.5434,-0.5474,-0.5507,-0.5517,-0.553,-0.5524,-0.5538,-0.5541,-0.5543,-0.5545,-0.5539,-0.5527,-0.5527,-0.5532,-0.5532,-0.5532]}]]